Location: Mouss�
(47.9236°N, 1.2701°W)
Time: 22:21:47
(UTC+00:00)

Cosmos 1980 Rocket - Pass Details

Date: 03 March 2021
Orbit: 828 x 851 km, 71.0° (Epoch: 20 April)

Event Time Altitude Azimuth Distance (km) Brightness Sun altitude
Rises 18:53:11 0° 240° (WSW) 3,391 6.4 -10.9°
Reaches altitude 10° 18:55:55 10° 251° (WSW) 2,464 5.8 -11.4°
Maximum altitude 19:00:51 30° 312° (NW) 1,480 4.1 -12.2°
Drops below altitude 10° 19:05:50 10° 13° (NNE) 2,486 4.6 -13.0°
Sets 19:08:37 0° 24° (NNE) 3,426 5.2 -13.5°
